K5KHP Weather Reports


time (UTC)temp
C
wind
direction
speed
KPH
gust
KPH
rain 1hr
cm
rain 24hr
cm
rain mn
cm
humidity
%
barometer
mb
20260507124130 11 127 0.0 0.0 0.00 0.00 0.00 94 1015.3
20260507123628 11 125 0.0 0.0 0.00 0.00 0.00 94 1015.4
20260507123125 11 119 0.0 0.0 0.00 0.00 0.00 94 1015.1
20260507122620 11 125 0.0 0.0 0.00 0.00 0.00 94 1015.2
20260507122115 11 119 0.0 0.0 0.00 0.00 0.00 94 1015.2
20260507121612 11 138 0.0 0.0 0.00 0.00 0.00 94 1015.2
20260507121108 11 132 0.0 0.0 0.00 0.00 0.00 94 1015.2
20260507120604 11 127 0.0 0.0 0.00 0.00 0.00 95 1015.1
20260507120101 11 138 0.0 0.0 0.00 0.00 0.00 95 1015.2
20260507115557 11 125 0.0 0.0 0.00 0.00 0.00 95 1015.2
20260507115053 11 71 0.0 0.0 0.00 0.00 0.00 95 1015.3
20260507114549 11 123 0.0 0.0 0.00 0.00 0.00 95 1015.4
20260507114047 11 130 0.0 0.0 0.00 0.00 0.00 95 1015.2
20260507113543 11 120 0.0 0.0 0.00 0.00 0.00 95 1015.2
20260507113041 11 125 0.0 0.0 0.00 0.00 0.00 95 1015.2
20260507112538 11 132 0.0 0.0 0.00 0.00 0.00 95 1015.5
20260507112035 11 132 0.0 0.0 0.00 0.00 0.00 95 1015.5
20260507111532 11 136 0.0 0.0 0.00 0.00 0.00 95 1015.4
20260507111029 11 126 0.0 0.0 0.00 0.00 0.00 95 1015.6
20260507110526 11 135 0.0 0.0 0.00 0.00 0.00 95 1015.3
20260507110022 11 91 0.0 0.0 0.00 0.00 0.00 95 1015.6
20260507105519 12 130 0.0 0.0 0.00 0.00 0.00 95 1015.4
20260507105014 12 134 0.0 0.0 0.00 0.00 0.00 95 1015.3
20260507104512 12 139 0.0 0.0 0.00 0.00 0.00 96 1015.5
20260507104008 12 139 0.0 0.0 0.00 0.00 0.00 96 1015.3
20260507103505 12 149 0.0 0.0 0.00 0.00 0.00 96 1015.7
20260507103001 12 130 0.0 0.0 0.00 0.00 0.00 96 1015.6
20260507102458 12 131 0.0 0.0 0.00 0.00 0.00 97 1015.5
20260507101954 12 135 0.0 0.0 0.00 0.00 0.00 97 1015.6
20260507101449 12 139 0.0 0.0 0.00 0.00 0.00 97 1015.7
20260507100946 12 141 0.0 0.0 0.00 0.00 0.00 96 1015.8
20260507100443 12 183 0.0 0.0 0.00 0.00 0.00 96 1015.7
20260507095942 12 183 0.0 0.0 0.00 0.00 0.00 96 1015.7
20260507095439 12 183 0.0 0.0 0.00 0.00 0.00 96 1015.7
20260507094936 12 183 0.0 0.0 0.00 0.00 0.00 96 1015.7
20260507094432 12 183 0.0 0.0 0.00 0.00 0.00 96 1015.8
20260507093929 12 186 0.0 0.0 0.00 0.00 0.00 96 1015.8
20260507093427 12 167 0.0 0.0 0.00 0.00 0.00 96 1016.0
20260507092920 12 138 0.0 0.0 0.00 0.00 0.00 95 1015.7
20260507092415 12 138 0.0 0.0 0.00 0.00 0.00 95 1015.9
20260507091912 12 138 0.0 0.0 0.00 0.00 0.00 95 1015.8
20260507091409 12 138 0.0 0.0 0.00 0.00 0.00 94 1016.0
20260507090904 12 138 0.0 0.0 0.00 0.00 0.00 94 1016.0
20260507090401 12 138 0.0 0.0 0.00 0.00 0.00 94 1016.1
20260507085858 12 138 0.0 0.0 0.00 0.00 0.00 94 1016.3
20260507085354 12 138 0.0 0.0 0.00 0.00 0.00 94 1016.1
20260507084852 12 138 0.0 0.0 0.00 0.00 0.00 94 1016.2
20260507084348 12 138 0.0 0.0 0.00 0.00 0.00 94 1016.2
20260507083846 12 134 0.0 0.0 0.00 0.00 0.00 94 1016.2
20260507083342 12 141 0.0 0.0 0.00 0.00 0.00 94 1016.1
20260507082839 12 121 0.0 0.0 0.00 0.00 0.00 94 1016.4
20260507082334 12 139 0.0 0.0 0.00 0.00 0.00 94 1016.1
20260507081831 12 139 0.0 0.0 0.00 0.00 0.00 94 1016.2
20260507081326 12 139 0.0 0.0 0.00 0.00 0.00 94 1016.3
20260507080818 13 125 0.0 0.0 0.00 0.00 0.00 94 1016.3
20260507080315 13 129 0.0 0.0 0.00 0.00 0.00 94 1016.0
20260507075810 13 132 0.0 0.0 0.00 0.00 0.00 94 1016.2
20260507075307 13 122 0.0 0.0 0.00 0.00 0.00 94 1016.3
20260507074803 13 126 0.0 0.0 0.00 0.00 0.00 94 1016.3
20260507074301 13 103 0.0 0.0 0.00 0.00 0.00 94 1016.3
20260507073758 13 124 0.0 0.0 0.00 0.00 0.00 94 1016.4
20260507073254 13 126 0.0 0.0 0.00 0.00 0.00 95 1016.3
20260507072752 13 79 0.0 0.0 0.00 0.00 0.00 95 1016.2
20260507072249 13 71 0.0 0.0 0.00 0.00 0.00 95 1016.5
20260507071746 13 118 0.0 0.0 0.00 0.00 0.00 95 1016.4
20260507071242 13 130 0.0 0.0 0.00 0.00 0.00 95 1016.4
20260507070740 13 129 0.0 0.0 0.00 0.00 0.00 95 1016.4
20260507070236 13 138 0.0 0.0 0.00 0.00 0.00 95 1016.6
20260507065733 13 138 0.0 0.0 0.00 0.00 0.00 95 1016.6
20260507065230 13 137 0.0 0.0 0.00 0.00 0.00 95 1016.4
20260507064727 13 137 0.0 0.0 0.00 0.00 0.00 94 1016.5
20260507064226 13 137 0.0 0.0 0.00 0.00 0.00 94 1016.5
20260507063723 13 132 0.0 0.0 0.00 0.00 0.00 94 1016.5
20260507063220 13 167 0.0 0.0 0.00 0.00 0.00 94 1016.5
20260507062717 13 164 0.0 0.0 0.00 0.00 0.00 94 1016.7
20260507062214 13 155 0.0 0.0 0.00 0.00 0.00 94 1016.7
20260507061712 13 166 0.0 0.0 0.00 0.00 0.00 94 1016.5
20260507061210 13 177 0.0 0.0 0.00 0.00 0.00 94 1016.6
20260507060708 13 164 0.0 0.0 0.00 0.00 0.00 94 1016.8
20260507060204 13 153 0.0 0.0 0.00 0.00 0.00 94 1016.8
20260507055700 13 174 0.0 0.0 0.00 0.00 0.00 94 1016.9
20260507055156 13 160 0.0 0.0 0.00 0.00 0.00 94 1016.6
20260507054652 13 169 0.0 0.0 0.00 0.00 0.00 94 1016.6
20260507054149 13 158 0.0 0.0 0.00 0.00 0.00 94 1016.6
20260507053647 13 162 0.0 0.0 0.00 0.00 0.00 94 1016.8
20260507053144 14 186 0.0 0.0 0.00 0.00 0.00 94 1016.7
20260507052643 14 163 0.0 0.0 0.00 0.00 0.00 94 1016.7
20260507052138 14 156 0.0 0.0 0.00 0.00 0.00 93 1016.7
20260507051636 14 179 0.0 0.0 0.00 0.00 0.00 93 1016.7
20260507051133 14 167 0.0 0.0 0.00 0.00 0.00 93 1016.8
20260507050629 14 170 0.0 0.0 0.00 0.00 0.00 93 1016.4
20260507050126 14 187 0.0 0.0 0.00 0.00 0.00 93 1016.6
20260507045624 14 164 0.0 0.0 0.00 0.00 0.00 92 1016.4
20260507045120 14 177 0.0 0.0 0.00 0.00 0.00 92 1016.4
20260507044617 14 180 0.0 0.0 0.00 0.00 0.00 92 1016.4
20260507044114 14 208 0.0 0.0 0.00 0.00 0.00 92 1016.5
20260507043609 15 199 0.0 0.0 0.00 0.00 0.00 91 1016.3
20260507043107 15 219 0.0 0.0 0.00 0.00 0.00 91 1016.5
20260507042602 15 168 0.0 0.0 0.00 0.00 0.00 91 1016.3
20260507042058 15 193 0.0 0.0 0.00 0.00 0.00 91 1016.4
20260507041555 15 236 0.0 0.0 0.00 0.00 0.00 91 1016.4
20260507041052 15 188 0.0 0.0 0.00 0.00 0.00 90 1016.5
20260507040548 15 182 0.0 0.0 0.00 0.00 0.00 90 1016.3
20260507040045 15 184 0.0 0.0 0.00 0.00 0.00 89 1016.2
20260507035541 15 172 0.0 0.0 0.00 0.00 0.00 89 1016.2
20260507035037 15 160 0.0 0.0 0.00 0.00 0.00 89 1016.3
20260507034534 15 170 0.0 0.0 0.00 0.00 0.00 89 1016.3
20260507034033 15 191 0.0 0.0 0.00 0.00 0.00 89 1016.0
20260507033530 15 142 0.0 0.0 0.00 0.00 0.00 88 1015.8
20260507033027 15 185 0.0 0.0 0.00 0.00 0.00 88 1016.0
20260507032524 15 213 0.0 0.0 0.00 0.00 0.00 88 1015.8
20260507032020 16 189 0.0 0.0 0.00 0.00 0.00 87 1016.0
20260507031516 16 156 0.0 0.0 0.00 0.00 0.00 86 1015.7
20260507031014 16 205 0.0 0.0 0.00 0.00 0.00 85 1015.9
20260507030510 16 179 0.0 0.0 0.00 0.00 0.00 85 1015.8
20260507030008 16 158 0.0 0.0 0.00 0.00 0.00 84 1015.6
20260507025504 16 204 0.0 0.0 0.00 0.00 0.00 82 1015.5
20260507025002 16 164 0.0 0.0 0.00 0.00 0.00 82 1015.6
20260507024459 16 170 0.0 0.0 0.00 0.00 0.00 81 1015.5
20260507023955 16 171 0.0 0.0 0.00 0.00 0.00 82 1015.5
20260507023452 16 204 0.0 0.0 0.00 0.00 0.00 82 1015.4
20260507022949 17 220 0.0 0.0 0.00 0.00 0.00 82 1015.3
20260507022447 17 174 0.0 1.6 0.00 0.00 0.00 81 1015.4
20260507021942 17 198 0.0 0.0 0.00 0.00 0.00 81 1015.4
20260507021437 17 177 0.0 0.0 0.00 0.00 0.00 81 1015.6
20260507020935 17 228 0.0 0.0 0.00 0.00 0.00 80 1015.4
20260507020432 17 216 0.0 3.2 0.00 0.00 0.00 79 1015.2
20260507015929 17 163 0.0 1.6 0.00 0.00 0.00 78 1015.4
20260507015427 18 203 0.0 0.0 0.00 0.00 0.00 78 1015.2
20260507014924 18 236 0.0 0.0 0.00 0.00 0.00 76 1015.4
20260507014420 18 275 0.0 0.0 0.00 0.00 0.00 73 1014.9
20260507013917 18 138 0.0 0.0 0.00 0.00 0.00 73 1015.1
20260507013414 18 292 0.0 0.0 0.00 0.00 0.00 72 1015.1
20260507012912 18 211 0.0 0.0 0.00 0.00 0.00 70 1015.4
20260507012408 19 205 0.0 0.0 0.00 0.00 0.00 70 1015.2
20260507011904 19 211 0.0 0.0 0.00 0.00 0.00 68 1015.3
20260507011401 20 193 0.0 0.0 0.00 0.00 0.00 67 1015.3
20260507010855 19 210 0.0 0.0 0.00 0.00 0.00 69 1015.3
20260507010351 19 263 4.8 9.7 0.00 0.00 0.00 69 1015.1
20260507005849 20 199 0.0 0.0 0.00 0.00 0.00 68 1015.5
20260507005345 20 223 0.0 0.0 0.00 0.00 0.00 65 1015.5
20260507004842 19 266 0.0 3.2 0.00 0.00 0.00 66 1015.4
20260507004339 20 287 3.2 8.0 0.00 0.00 0.00 66 1015.4
20260507003836 19 249 1.6 3.2 0.00 0.00 0.00 67 1015.4
20260507003331 20 193 0.0 0.0 0.00 0.00 0.00 66 1015.2
20260507002826 20 236 0.0 0.0 0.00 0.00 0.00 66 1015.3
20260507002323 19 241 0.0 1.6 0.00 0.00 0.00 66 1015.4
20260507001820 20 235 3.2 4.8 0.00 0.00 0.00 65 1015.5
20260507001317 20 210 3.2 4.8 0.00 0.00 0.00 65 1015.3
20260507000813 20 253 3.2 9.7 0.00 0.00 0.00 63 1015.4
20260507000309 20 228 0.0 0.0 0.00 0.00 0.00 64 1015.2
20260506235806 20 245 3.2 8.0 0.00 0.00 0.00 65 1015.3
20260506235306 20 192 0.0 0.0 0.00 0.00 0.00 65 1015.4
20260506234753 20 225 1.6 3.2 0.00 0.00 0.00 64 1015.5
20260506234250 20 254 4.8 12.9 0.00 0.00 0.00 63 1015.4
20260506233743 20 251 0.0 1.6 0.00 0.00 0.00 64 1015.4
20260506233239 20 244 0.0 1.6 0.00 0.00 0.00 65 1015.2
20260506232735 20 254 0.0 1.6 0.00 0.00 0.00 64 1015.6
20260506232230 20 258 3.2 8.0 0.00 0.00 0.00 64 1015.2
20260506231728 20 238 0.0 1.6 0.00 0.00 0.00 65 1015.4
20260506231226 20 207 0.0 0.0 0.00 0.00 0.00 66 1015.5
20260506230723 21 221 0.0 1.6 0.00 0.00 0.00 64 1015.6
20260506230220 20 293 3.2 8.0 0.00 0.00 0.00 64 1015.5
20260506225716 20 220 4.8 9.7 0.00 0.00 0.00 64 1015.6
20260506225213 20 263 9.7 12.9 0.00 0.00 0.00 64 1015.9
20260506224709 21 199 0.0 1.6 0.00 0.00 0.00 65 1015.5
20260506224207 20 259 4.8 8.0 0.00 0.00 0.00 65 1015.8
20260506223703 20 247 0.0 1.6 0.00 0.00 0.00 67 1015.9
20260506223159 21 268 0.0 0.0 0.00 0.00 0.00 64 1016.0
20260506222656 20 278 1.6 3.2 0.00 0.00 0.00 64 1016.0
20260506222151 21 265 11.3 20.9 0.00 0.00 0.00 65 1015.9
20260506221649 21 232 6.4 9.7 0.00 0.00 0.00 65 1016.0
20260506221147 21 198 0.0 0.0 0.00 0.00 0.00 64 1016.1
20260506220643 21 255 4.8 11.3 0.00 0.00 0.00 64 1016.2
20260506220138 20 241 9.7 17.7 0.00 0.00 0.00 66 1016.4
20260506215635 20 257 9.7 14.5 0.00 0.00 0.00 65 1016.5
20260506215130 20 272 3.2 12.9 0.00 0.00 0.00 66 1016.4
20260506214628 21 244 4.8 11.3 0.00 0.00 0.00 65 1016.6
20260506214125 21 258 4.8 11.3 0.00 0.00 0.00 65 1016.4
20260506213624 21 234 8.0 12.9 0.00 0.00 0.00 66 1016.5
20260506213120 21 259 0.0 0.0 0.00 0.00 0.00 64 1016.7
20260506212618 21 234 1.6 4.8 0.00 0.00 0.00 64 1016.7
20260506212112 20 189 6.4 12.9 0.00 0.00 0.00 65 1016.9
20260506211608 20 228 0.0 0.0 0.00 0.00 0.00 64 1016.7
20260506211106 21 248 3.2 9.7 0.00 0.00 0.00 64 1016.8
20260506210602 21 219 4.8 9.7 0.00 0.00 0.00 65 1016.7
20260506210058 20 270 1.6 4.8 0.00 0.00 0.00 65 1016.8
20260506205555 20 215 1.6 3.2 0.00 0.00 0.00 64 1016.9
20260506205050 20 194 0.0 0.0 0.00 0.00 0.00 64 1016.8
20260506204549 20 258 4.8 11.3 0.00 0.00 0.00 65 1016.9
20260506204045 20 284 8.0 11.3 0.00 0.00 0.00 64 1016.7
20260506203544 20 250 0.0 1.6 0.00 0.00 0.00 66 1017.0
20260506203040 20 250 1.6 4.8 0.00 0.00 0.00 66 1017.0
20260506202538 20 276 4.8 4.8 0.00 0.00 0.00 65 1017.0
20260506202034 20 254 4.8 9.7 0.00 0.00 0.00 67 1017.0
20260506201532 20 266 0.0 1.6 0.00 0.00 0.00 67 1017.1
20260506201028 20 288 1.6 4.8 0.00 0.00 0.00 67 1017.0
20260506200524 20 206 1.6 4.8 0.00 0.00 0.00 70 1017.3
20260506200021 20 194 0.0 0.0 0.00 0.00 0.00 69 1017.3
20260506195518 20 257 14.5 17.7 0.00 0.00 0.00 70 1017.3
20260506195009 20 271 6.4 9.7 0.00 0.00 0.00 70 1017.4
20260506194507 20 242 8.0 12.9 0.00 0.00 0.00 71 1017.3
20260506194003 20 273 3.2 4.8 0.00 0.00 0.00 69 1017.3
20260506193500 20 255 4.8 8.0 0.00 0.00 0.00 71 1017.3
20260506192956 20 213 0.0 1.6 0.00 0.00 0.00 69 1017.4
20260506192454 20 227 0.0 0.0 0.00 0.00 0.00 71 1017.4
20260506191950 20 257 0.0 0.0 0.00 0.00 0.00 69 1017.4
20260506191447 20 264 4.8 11.3 0.00 0.00 0.00 71 1017.6
20260506190943 20 230 0.0 3.2 0.00 0.00 0.00 71 1017.5
20260506190440 20 240 4.8 8.0 0.00 0.00 0.00 70 1017.6
20260506185937 20 259 0.0 0.0 0.00 0.00 0.00 70 1017.6
20260506185434 20 276 1.6 8.0 0.00 0.00 0.00 70 1017.4
20260506184931 20 199 1.6 4.8 0.00 0.00 0.00 70 1017.6
20260506184428 20 260 1.6 3.2 0.00 0.00 0.00 71 1017.5
20260506183925 19 250 9.7 12.9 0.00 0.00 0.00 71 1017.6
20260506183420 19 250 4.8 9.7 0.00 0.00 0.00 71 1017.7
20260506182918 20 272 11.3 12.9 0.00 0.00 0.00 69 1017.9
20260506182415 20 243 4.8 9.7 0.00 0.00 0.00 69 1017.6
20260506181912 20 267 0.0 0.0 0.00 0.00 0.00 68 1018.0
20260506181410 20 241 3.2 8.0 0.00 0.00 0.00 68 1017.9
20260506180907 20 215 0.0 0.0 0.00 0.00 0.00 68 1017.9
20260506180403 19 209 0.0 0.0 0.00 0.00 0.00 68 1017.7
20260506175900 20 243 8.0 11.3 0.00 0.00 0.00 66 1017.8
20260506175356 20 157 0.0 0.0 0.00 0.00 0.00 62 1017.7
20260506174853 20 178 0.0 0.0 0.00 0.00 0.00 61 1017.7
20260506174351 20 145 0.0 0.0 0.00 0.00 0.00 63 1017.8
20260506173848 20 225 1.6 8.0 0.00 0.00 0.00 62 1017.5
20260506173345 19 227 0.0 0.0 0.00 0.00 0.00 64 1017.8
20260506172842 19 170 0.0 0.0 0.00 0.00 0.00 66 1017.8
20260506172338 19 212 0.0 1.6 0.00 0.00 0.00 65 1018.0
20260506171830 19 233 1.6 4.8 0.00 0.00 0.00 65 1017.9
20260506171327 18 107 0.0 0.0 0.00 0.00 0.00 66 1018.0
20260506170825 19 279 0.0 1.6 0.00 0.00 0.00 66 1017.7
20260506170320 18 269 0.0 0.0 0.00 0.00 0.00 68 1017.9
20260506165819 18 285 0.0 0.0 0.00 0.00 0.00 69 1017.8
20260506165316 18 255 0.0 0.0 0.00 0.00 0.00 69 1017.9
20260506164808 18 267 0.0 0.0 0.00 0.00 0.00 69 1017.6
20260506164304 18 212 0.0 0.0 0.00 0.00 0.00 69 1017.8
20260506163801 17 188 0.0 0.0 0.00 0.00 0.00 70 1017.8
20260506163256 17 257 0.0 0.0 0.00 0.00 0.00 70 1017.9
20260506162752 18 249 0.0 0.0 0.00 0.00 0.00 71 1017.7
20260506162250 17 268 0.0 0.0 0.00 0.00 0.00 71 1018.0
20260506161747 17 183 0.0 0.0 0.00 0.00 0.00 70 1017.8
20260506161244 17 349 0.0 0.0 0.00 0.00 0.00 70 1018.0
20260506160741 17 235 0.0 0.0 0.00 0.00 0.00 72 1017.9
20260506160238 17 224 0.0 0.0 0.00 0.00 0.00 71 1017.9
20260506155737 17 206 0.0 0.0 0.00 0.00 0.00 72 1017.8
20260506155234 17 223 0.0 0.0 0.00 0.00 0.00 71 1017.8
20260506153346 17 38 0.0 0.0 0.00 0.00 0.00 72 1017.8
20260506152843 17 119 0.0 0.0 0.00 0.00 0.00 71 1017.8
20260506152340 16 115 0.0 0.0 0.00 0.00 0.00 72 1017.8
20260506151839 16 157 0.0 0.0 0.00 0.00 0.00 73 1017.8
20260506151335 15 97 0.0 0.0 0.00 0.00 0.00 75 1017.9
20260506150832 15 131 0.0 0.0 0.00 0.00 0.00 76 1017.7
20260506150329 15 90 0.0 0.0 0.00 0.00 0.00 76 1017.8
20260506145826 14 113 0.0 0.0 0.00 0.00 0.00 79 1017.7
20260506145322 14 105 0.0 0.0 0.00 0.00 0.00 78 1017.7
20260506144820 13 95 0.0 0.0 0.00 0.00 0.00 79 1017.7
20260506144316 13 87 0.0 0.0 0.00 0.00 0.00 80 1017.8
20260506143815 13 119 0.0 0.0 0.00 0.00 0.00 82 1017.8
20260506143311 13 69 0.0 0.0 0.00 0.00 0.00 83 1017.6
20260506142810 12 88 0.0 0.0 0.00 0.00 0.00 83 1017.6
20260506142307 12 117 0.0 0.0 0.00 0.00 0.00 83 1017.7
20260506141806 12 86 0.0 0.0 0.00 0.00 0.00 84 1017.5
20260506141303 12 57 0.0 0.0 0.00 0.00 0.00 84 1017.6
20260506140801 12 77 0.0 0.0 0.00 0.00 0.00 85 1017.5
20260506140257 11 72 0.0 0.0 0.00 0.00 0.00 85 1017.3
20260506135755 11 132 0.0 0.0 0.00 0.00 0.00 86 1017.6
20260506135251 11 58 0.0 0.0 0.00 0.00 0.00 86 1017.5
20260506134748 11 117 0.0 0.0 0.00 0.00 0.00 87 1017.5
20260506134244 11 98 0.0 0.0 0.00 0.00 0.00 88 1017.4
20260506133741 10 104 0.0 0.0 0.00 0.00 0.00 89 1017.3
20260506133238 10 85 0.0 0.0 0.00 0.00 0.00 90 1017.5
20260506132735 10 81 0.0 0.0 0.00 0.00 0.00 90 1017.3
20260506132232 10 66 0.0 0.0 0.00 0.00 0.00 90 1017.4
20260506131730 10 100 0.0 0.0 0.00 0.00 0.00 90 1017.3
20260506131225 10 68 0.0 0.0 0.00 0.00 0.00 90 1017.2
20260506130722 10 75 0.0 0.0 0.00 0.00 0.00 90 1017.3
20260506130219 10 89 0.0 0.0 0.00 0.00 0.00 90 1017.4
20260506125718 10 118 0.0 0.0 0.00 0.00 0.00 90 1017.2
20260506125215 10 131 0.0 0.0 0.00 0.00 0.00 90 1017.0
20260506124713 10 116 0.0 0.0 0.00 0.00 0.00 90 1017.0